Chicago, IL

3:31 PM CST on November 16, 2019 (GMT -0600)
Chicago-O'Hare International

Weather History for KORD - May, 2019

Change the Weather History Date:

Friday, May 24, 2019

  Actual Average Record
Temperature  
Mean Temperature 64 °F 62 °F  
Max Temperature 75 °F 73 °F 93 °F (1950)
Min Temperature 54 °F 51 °F 34 °F (1992)
Degree Days  
Heating Degree Days 0 5  
Month to date heating degree days 228 193  
Since 1 July heating degree days 6417 6260  
Cooling Degree Days 0 2  
Month to date cooling degree days 8 28  
Year to date cooling degree days 12 38  
Growing Degree Days 14 (Base 50)    
Moisture  
Dew Point 54 °F    
Average Humidity 77    
Maximum Humidity 93    
Minimum Humidity 62    
Precipitation  
Precipitation 0.26 in 0.11 in 1.62 in (1927)
Month to date precipitation 5.41 2.85  
Year to date precipitation 18.29 12.25  
Snow  
Snow 0.00 in 0.00 in T in (1925)
Month to date snowfall T 0.0  
Since 1 July snowfall 49.5 36.3  
Snow Depth 0.00 in    
Sea Level Pressure  
Sea Level Pressure 30.05 in    
Wind  
Wind Speed 7 mph ()    
Max Wind Speed 18 mph    
Max Gust Speed 23 mph    
Visibility 9.5 miles    
Events Rain , Thunderstorm    
T = Trace of Precipitation, MM = Missing Value Source: Averaged Metar Reports

Daily Weather History Graph

Daily Weather History Graph

Search for Another Location

Airport or City:

Astronomy

May. 24, 2019 Rise Set
Actual Time 5:23 AM CDT 8:13 PM CDT
Civil Twilight 4:50 AM CDT 8:46 PM CDT
Nautical Twilight 4:09 AM CDT 9:28 PM CDT
Astronomical Twilight 3:21 AM CDT 10:16 PM CDT
Moon 12:38 AM CDT (5/24) 10:24 AM CDT (5/24)
Length of Visible Light 15h 56m
Length of Day
14h 50m
Waning Gibbous, 68% of the Moon is Illuminated
May 24
Waning Gibbous
May 26
Last Quarter
Jun 3
New
Jun 10
First Quarter
Jun 17
Full

Hourly Weather History & Observations

Time (CDT) Temp. Dew Point Humidity Pressure Visibility Wind Dir Wind Speed Gust Speed Precip Events Conditions
12:51 AM 63.0 °F 51.1 °F 65% 30.07 in 10.0 mi ENE 9.2 mph - N/A   Mostly Cloudy
1:51 AM 61.0 °F 48.0 °F 62% 30.09 in 10.0 mi ENE 8.1 mph - N/A   Scattered Clouds
2:51 AM 60.1 °F 48.0 °F 64% 30.09 in 10.0 mi ENE 6.9 mph - N/A   Overcast
3:51 AM 60.1 °F 48.0 °F 64% 30.08 in 10.0 mi East 8.1 mph - N/A   Overcast
4:51 AM 59.0 °F 46.9 °F 64% 30.08 in 10.0 mi NE 4.6 mph - N/A   Overcast
4:59 AM 60.1 °F 46.9 °F 62% 30.12 in 10.0 mi NNE 4.6 mph - N/A Thunderstorm Overcast
5:08 AM 59.0 °F 48.0 °F 67% 30.13 in 10.0 mi NNW 6.9 mph - 0.00 in Rain , Thunderstorm Light Thunderstorms and Rain
5:51 AM 55.0 °F 51.1 °F 86% 30.17 in 4.0 mi North 12.7 mph - 0.10 in Rain , Thunderstorm Thunderstorms and Rain
6:00 AM 55.0 °F 52.0 °F 89% 30.15 in 8.0 mi NNE 15.0 mph - 0.01 in Rain , Thunderstorm Light Thunderstorms and Rain
6:14 AM 55.0 °F 52.0 °F 89% 30.17 in 10.0 mi North 12.7 mph - 0.02 in Rain Light Rain
6:36 AM 54.0 °F 52.0 °F 93% 30.17 in 5.0 mi NE 8.1 mph - 0.07 in Rain , Thunderstorm Heavy Thunderstorms and Rain
6:51 AM 54.0 °F 52.0 °F 93% 30.20 in 6.0 mi Variable 4.6 mph - 0.13 in Rain , Thunderstorm Thunderstorms and Rain
7:10 AM 54.0 °F 51.1 °F 90% 30.15 in 10.0 mi ENE 9.2 mph - 0.01 in Rain Light Rain
7:43 AM 55.0 °F 52.0 °F 89% 30.17 in 10.0 mi NNE 12.7 mph - 0.01 in   Overcast
7:51 AM 54.0 °F 52.0 °F 93% 30.16 in 10.0 mi NNE 9.2 mph - 0.01 in   Overcast
8:51 AM 55.9 °F 52.0 °F 87% 30.10 in 10.0 mi East 10.4 mph - 0.01 in   Overcast
9:51 AM 59.0 °F 52.0 °F 78% 30.09 in 10.0 mi ESE 11.5 mph - N/A   Overcast
10:51 AM 60.1 °F 52.0 °F 75% 30.09 in 10.0 mi SSE 8.1 mph - N/A   Overcast
11:51 AM 63.0 °F 53.1 °F 70% 30.09 in 10.0 mi South 4.6 mph - N/A   Overcast
12:51 PM 61.0 °F 54.0 °F 78% 30.12 in 10.0 mi North 12.7 mph - N/A   Overcast
1:51 PM 63.0 °F 55.0 °F 75% 30.04 in 10.0 mi SE 10.4 mph - 0.00 in   Overcast
2:51 PM 64.9 °F 55.0 °F 70% 30.01 in 10.0 mi SE 10.4 mph - N/A   Overcast
3:51 PM 64.0 °F 55.0 °F 73% 30.00 in 10.0 mi SE 10.4 mph - N/A   Overcast
4:51 PM 64.9 °F 55.0 °F 70% 29.98 in 10.0 mi East 5.8 mph - N/A   Overcast
5:51 PM 69.1 °F 57.0 °F 65% 29.94 in 10.0 mi East 3.5 mph - N/A   Mostly Cloudy
6:51 PM 71.1 °F 60.1 °F 68% 29.92 in 10.0 mi ESE 5.8 mph - N/A   Mostly Cloudy
7:51 PM 69.1 °F 57.9 °F 68% 29.91 in 10.0 mi East 6.9 mph - N/A   Scattered Clouds
8:51 PM 66.9 °F 57.9 °F 73% 29.90 in 10.0 mi East 4.6 mph - N/A   Mostly Cloudy
9:51 PM 68.0 °F 60.1 °F 76% 29.89 in 10.0 mi SE 3.5 mph - N/A   Mostly Cloudy
10:32 PM 68.0 °F 62.1 °F 81% 29.89 in 10.0 mi Calm Calm - 0.01 in Thunderstorm Mostly Cloudy
10:47 PM 68.0 °F 62.6 °F 83% 29.88 in 10.0 mi SSE 4.6 mph - 0.01 in   Mostly Cloudy
10:51 PM 66.9 °F 63.0 °F 87% 29.88 in 10.0 mi SE 4.6 mph - 0.01 in   Mostly Cloudy
11:51 PM 69.1 °F 66.0 °F 90% 29.87 in 10.0 mi South 6.9 mph - 0.00 in Rain Light Rain